Location: ??
(35.3149°N, 139.6204°E)
Time: 11:10:22
(UTC+00:00)

SL-16 R/B - Pass Details

Date: 03 August 2024
Orbit: 985 x 1006 km, 99.7° (Epoch: 09 September)

Event Time Altitude Azimuth Distance (km) Brightness Sun altitude
Exits shadow 18:13:15 25° 203° (SSW) 1,877 3.5 -18.4°
Maximum altitude 18:16:28 44° 260° (W) 1,329 2.8 -17.9°
Drops below altitude 10° 18:22:19 10° 332° (NNW) 2,747 5.0 -16.9°
Sets 18:24:56 0° 338° (NNW) 3,700 5.7 -16.5°
